Weather History for KDXX - July, 2013

Change the Weather History Date:

Wednesday, July 3, 2013

  Actual Average (KAQP) Record (KAQP)
Temperature  
Mean Temperature 68 °F -  
Max Temperature 82 °F 78 °F 91 °F (1999)
Min Temperature 55 °F 58 °F 46 °F (2008)
Cooling Degree Days 4    
Growing Degree Days 18 (Base 50)    
Moisture  
Dew Point 52 °F    
Average Humidity 56    
Maximum Humidity 94    
Minimum Humidity 26    
Precipitation  
Precipitation 0.00 in - - ()
Sea Level Pressure  
Sea Level Pressure 30.00 in    
Wind  
Wind Speed 4 mph (SE)    
Max Wind Speed 13 mph    
Max Gust Speed 18 mph    
Visibility 10 miles    
Events      
Averages and records for this station are not official NWS values.
T = Trace of Precipitation, MM = Missing Value Source: NWS Daily Summary

Daily Weather History Graph

Daily Weather History Graph

Search for Another Location

Airport or City:

Trip Planner

Search our weather history database for the weather conditions in past years. The results will help you decide how hot, cold, wet, or windy it might be!

Date:

Astronomy

Jul. 03, 2013 Rise Set
Actual Time 5:43 AM CDT 9:14 PM CDT
Civil Twilight 5:06 AM CDT 9:51 PM CDT
Nautical Twilight 4:17 AM CDT 10:40 PM CDT
Astronomical Twilight 3:13 AM CDT 11:43 PM CDT
Moon 2:27 AM CDT 5:21 PM CDT
Length of Visible Light 16h 45m
Length of Day
15h 31m
Waning Crescent, 18% of the Moon is Illuminated
Jul 3
Waning Crescent
Jul 8
New
Jul 15
First Quarter
Jul 22
Full
Jul 29
Last Quarter

Hourly Weather History & Observations

Time (CDT) Temp. Heat Index Dew Point Humidity Pressure Visibility Wind Dir Wind Speed Gust Speed Precip Events Conditions
12:14 AM 64.4 °F - 55.4 °F 73% 30.07 in 10.0 mi Calm Calm - N/A   Clear
12:34 AM 66.2 °F - 57.2 °F 73% 30.07 in 10.0 mi Calm Calm - N/A   Clear
12:53 AM 64.4 °F - 57.2 °F 77% 30.06 in 10.0 mi Calm Calm - N/A   Clear
1:14 AM 62.6 °F - 57.2 °F 82% 30.06 in 10.0 mi ESE 3.5 mph - N/A   Clear
1:34 AM 64.4 °F - 55.4 °F 73% 30.06 in 10.0 mi Calm Calm - N/A   Clear
1:53 AM 62.6 °F - 55.4 °F 77% 30.05 in 10.0 mi Calm Calm - N/A   Clear
2:14 AM 62.6 °F - 55.4 °F 77% 30.05 in 10.0 mi Calm Calm - N/A   Clear
2:33 AM 60.8 °F - 55.4 °F 82% 30.05 in 10.0 mi Calm Calm - N/A   Clear
2:54 AM 60.8 °F - 55.4 °F 82% 30.05 in 10.0 mi Calm Calm - N/A   Clear
3:14 AM 62.6 °F - 55.4 °F 77% 30.04 in 10.0 mi Calm Calm - N/A   Clear
3:33 AM 62.6 °F - 55.4 °F 77% 30.04 in 10.0 mi Calm Calm - N/A   Clear
3:54 AM 57.2 °F - 53.6 °F 88% 30.04 in 10.0 mi Calm Calm - N/A   Clear
4:14 AM 59.0 °F - 53.6 °F 82% 30.04 in 10.0 mi Calm Calm - N/A   Clear
4:33 AM 57.2 °F - 53.6 °F 88% 30.04 in 10.0 mi Calm Calm - N/A   Clear
4:54 AM 59.0 °F - 53.6 °F 82% 30.04 in 10.0 mi Calm Calm - N/A   Clear
5:14 AM 59.0 °F - 53.6 °F 82% 30.04 in 10.0 mi Calm Calm - N/A   Clear
5:33 AM 59.0 °F - 55.4 °F 88% 30.04 in 10.0 mi Calm Calm - N/A   Clear
5:54 AM 55.4 °F - 51.8 °F 88% 30.05 in 7.0 mi East 3.5 mph - N/A   Clear
6:14 AM 55.4 °F - 53.6 °F 94% 30.05 in 5.0 mi East 3.5 mph - N/A   Clear
6:33 AM 57.2 °F - 53.6 °F 88% 30.05 in 5.0 mi East 3.5 mph - N/A   Clear
6:54 AM 59.0 °F - 55.4 °F 88% 30.05 in 7.0 mi ESE 5.8 mph - N/A   Clear
7:14 AM 62.6 °F - 57.2 °F 82% 30.05 in 7.0 mi ESE 4.6 mph - N/A   Clear
7:33 AM 62.6 °F - 57.2 °F 82% 30.05 in 7.0 mi ESE 3.5 mph - N/A   Clear
7:54 AM 64.4 °F - 57.2 °F 77% 30.05 in 7.0 mi Calm Calm - N/A   Clear
8:14 AM 66.2 °F - 57.2 °F 73% 30.05 in 10.0 mi Calm Calm - N/A   Clear
8:33 AM 68.0 °F - 57.2 °F 68% 30.05 in 10.0 mi SE 3.5 mph - N/A   Clear
8:54 AM 71.6 °F - 59.0 °F 64% 30.05 in 10.0 mi SSE 3.5 mph - N/A   Clear
9:14 AM 71.6 °F - 59.0 °F 64% 30.05 in 10.0 mi SE 5.8 mph - N/A   Clear
9:33 AM 73.4 °F - 59.0 °F 61% 30.05 in 10.0 mi South 5.8 mph - N/A   Clear
9:54 AM 75.2 °F - 57.2 °F 53% 30.05 in 10.0 mi SSE 8.1 mph - N/A   Clear
10:14 AM 77.0 °F - 57.2 °F 50% 30.04 in 10.0 mi SSE 10.4 mph - N/A   Clear
10:33 AM 78.8 °F - 55.4 °F 44% 30.03 in 10.0 mi SSE 9.2 mph - N/A   Clear
10:54 AM 78.8 °F - 53.6 °F 42% 30.02 in 10.0 mi South 9.2 mph - N/A   Clear
11:14 AM 78.8 °F - 53.6 °F 42% 30.02 in 10.0 mi SSE 8.1 mph - N/A   Clear
11:33 AM 78.8 °F - 53.6 °F 42% 30.02 in 10.0 mi SSE 8.1 mph - N/A   Clear
11:54 AM 80.6 °F 80.3 °F 53.6 °F 39% 30.02 in 10.0 mi SSE 8.1 mph - N/A   Clear
12:14 PM 80.6 °F - 51.8 °F 37% 30.02 in 10.0 mi ESE 8.1 mph - N/A   Scattered Clouds
12:33 PM 80.6 °F - 51.8 °F 37% 30.01 in 10.0 mi SSE 6.9 mph - N/A   Clear
12:54 PM 80.6 °F - 50.0 °F 34% 30.01 in 10.0 mi SE 5.8 mph - N/A   Scattered Clouds
1:14 PM 80.6 °F - 51.8 °F 37% 30.01 in 10.0 mi SSE 5.8 mph - N/A   Scattered Clouds
1:33 PM 78.8 °F - 48.2 °F 34% 30.00 in 10.0 mi SE 3.5 mph - N/A   Scattered Clouds
1:54 PM 80.6 °F - 48.2 °F 32% 30.00 in 10.0 mi SE 6.9 mph - N/A   Scattered Clouds
2:13 PM 80.6 °F - 48.2 °F 32% 30.00 in 10.0 mi ESE 10.4 mph - N/A   Scattered Clouds
2:33 PM 80.6 °F - 46.4 °F 30% 30.00 in 10.0 mi ESE 12.7 mph - N/A   Scattered Clouds
2:54 PM 82.4 °F - 46.4 °F 28% 29.99 in 10.0 mi ESE 11.5 mph - N/A   Scattered Clouds
3:13 PM 82.4 °F - 48.2 °F 30% 29.99 in 10.0 mi SSE 8.1 mph - N/A   Scattered Clouds
3:33 PM 82.4 °F - 46.4 °F 28% 29.98 in 10.0 mi SE 12.7 mph - N/A   Clear
3:54 PM 82.4 °F - 46.4 °F 28% 29.97 in 10.0 mi ESE 10.4 mph - N/A   Clear
4:14 PM 82.4 °F - 46.4 °F 28% 29.97 in 10.0 mi SE 9.2 mph 16.1 mph N/A   Clear
4:33 PM 80.6 °F - 46.4 °F 30% 29.97 in 10.0 mi SE 11.5 mph 18.4 mph N/A   Clear
4:54 PM 82.4 °F - 44.6 °F 26% 29.96 in 10.0 mi ESE 12.7 mph 16.1 mph N/A   Clear
5:14 PM 80.6 °F - 46.4 °F 30% 29.96 in 10.0 mi SE 11.5 mph - N/A   Clear
5:33 PM 80.6 °F - 44.6 °F 28% 29.96 in 10.0 mi ESE 9.2 mph - N/A   Clear
5:54 PM 80.6 °F - 44.6 °F 28% 29.95 in 10.0 mi East 10.4 mph - N/A   Clear
6:14 PM 80.6 °F - 44.6 °F 28% 29.95 in 10.0 mi ESE 9.2 mph - N/A   Clear
6:33 PM 80.6 °F - 44.6 °F 28% 29.95 in 10.0 mi SE 6.9 mph - N/A   Clear
6:54 PM 78.8 °F - 46.4 °F 32% 29.94 in 10.0 mi ESE 9.2 mph - N/A   Clear
7:14 PM 78.8 °F - 46.4 °F 32% 29.94 in 10.0 mi ESE 9.2 mph - N/A   Clear
7:33 PM 78.8 °F - 48.2 °F 34% 29.93 in 10.0 mi ESE 6.9 mph - N/A   Clear
7:54 PM 77.0 °F - 50.0 °F 39% 29.93 in 10.0 mi ESE 6.9 mph - N/A   Clear
8:13 PM 75.2 °F - 51.8 °F 44% 29.93 in 10.0 mi ESE 6.9 mph - N/A   Clear
8:34 PM 73.4 °F - 51.8 °F 47% 29.92 in 10.0 mi ESE 6.9 mph - N/A   Clear
8:54 PM 71.6 °F - 51.8 °F 50% 29.92 in 10.0 mi ESE 6.9 mph - N/A   Clear
9:13 PM 69.8 °F - 53.6 °F 56% 29.92 in 10.0 mi ESE 6.9 mph - N/A   Clear
9:34 PM 69.8 °F - 51.8 °F 53% 29.93 in 10.0 mi ESE 6.9 mph - N/A   Clear
9:54 PM 69.8 °F - 51.8 °F 53% 29.93 in 10.0 mi SE 6.9 mph - N/A   Clear
10:13 PM 69.8 °F - 51.8 °F 53% 29.93 in 10.0 mi SE 8.1 mph - N/A   Clear
10:34 PM 69.8 °F - 51.8 °F 53% 29.93 in 10.0 mi SE 6.9 mph - N/A   Clear
10:54 PM 68.0 °F - 51.8 °F 56% 29.93 in 10.0 mi SE 6.9 mph - N/A   Clear
11:13 PM 66.2 °F - 51.8 °F 60% 29.93 in 10.0 mi SE 8.1 mph - N/A   Clear
11:34 PM 66.2 °F - 51.8 °F 60% 29.93 in 10.0 mi SE 8.1 mph - N/A   Clear
11:54 PM 66.2 °F - 51.8 °F 60% 29.93 in 10.0 mi SE 8.1 mph - N/A   Clear